Header for Extended Forecast Station List Page

Search by: ID | Name | Date | Parm | Value | Avg | % Avg
Sort by: ID | Name | Date | Parm | Value | Avg | % Avg

Enter search or view all records.

Click on id for station plot
#IDNameDateParmValueAvg% Avg
0BULO3BULLY CREEK-BULLY CREEK DAM10-07-2019INFLOW (KAF)32174
1MACI1BIG LOST-MACKAY RESERVOIR NEAR MACKAY10-07-2019INFLOW (KAF)477695
2RIDI1WILLOW CREEK-RIRIE DAM10-07-2019INFLOW (KAF)128142
3MYKO3MCKAY CREEK-NEAR PILOT ROCK10-07-2019DISCHARGE (KAF)1413105
4LWRI1LITTLE WOOD-LITTLE WOOD DAM10-07-2019INFLOW (KAF)2015131
5BERO3MALHEUR-AGENCY VALLEY DAM10-07-2019INFLOW (KAF)131589
6WRMO3MALHEUR-WARM SPRINGS DAM10-07-2019INFLOW (KAF)171796
7DEDI1DEADWOOD-NEAR LOWMAN10-07-2019INFLOW (KAF)181998
8ARDW1ENTIAT-NEAR ARDENVOIR10-07-2019DISCHARGE (KAF)2622116
9HWRI1BIG LOST-AT HOWELL RANCH NEAR CHILLY10-07-2019DISCHARGE (KAF)2822124
10HOTI1BRUNEAU-NEAR HOT SPRINGS10-07-2019DISCHARGE (KAF)3526133
11MAGI1BIG WOOD-MAGIC DAM10-07-2019INFLOW (KAF)3327120
12SATI1ST MARIES-NEAR SANTA10-07-2019DISCHARGE (KAF)172861
13GIBO3UMATILLA-NEAR GIBBON10-07-2019DISCHARGE (KAF)222977
14TNAW1TEANAWAY-BELOW FORKS10-07-2019DISCHARGE (KAF)163445
15BUDW1BUMPING-BUMPING LAKE DAM10-07-2019INFLOW (KAF)253474
16STRM8ST. REGIS-NEAR ST. REGIS10-07-2019DISCHARGE (KAF)203656
17BIGI1BOISE-AT GLENWOOD BRIDGE10-07-2019DISCHARGE (KAF)5839148
18HALI1BIG WOOD-AT HAILEY10-07-2019DISCHARGE (KAF)4741116
19KADW1KACHESS-KACHESS DAM10-07-2019INFLOW (KAF)324276
20KEDW1YAKIMA-KEECHELUS LAKE10-07-2019INFLOW (KAF)495099
21RCCM8ROCK CREEK-NEAR CLINTON10-07-2019DISCHARGE (KAF)6251122
22PIHI1PORTNEUF-AT POCATELLO10-07-2019DISCHARGE (KAF)595999
23DLGM8CLARK FORK-AT DEER LODGE10-07-2019DISCHARGE (KAF)6564101
24EASW1YAKIMA-AT EASTON10-07-2019DISCHARGE (KAF)486475
25PDTO3UMATILLA-AT PENDLETON10-07-2019DISCHARGE (KAF)566487
26RILW1TIETON-RIMROCK LAKE NEAR RIMROCK10-07-2019INFLOW (KAF)536582
27WSRI1WEISER-NEAR WEISER10-07-2019DISCHARGE (KAF)446567
28UMAO3UMATILLA-NEAR UMATILLA10-07-2019DISCHARGE (KAF)9666146
29NACW1NACHES-NEAR NACHES10-07-2019DISCHARGE (KAF)7270102
30OWYO3OWYHEE-OWYHEE DAM10-07-2019INFLOW (KAF)8673117
31ARAI1SF BOISE-ANDERSON RANCH DAM10-07-2019INFLOW (KAF)8373113
32MONO3NF JOHN DAY-AT MONUMENT10-07-2019DISCHARGE (KAF)618572
33CSDI1NF PAYETTE-CASCADE DAM10-07-2019INFLOW (KAF)919399
34TCHW1WALLA WALLA-NEAR TOUCHET10-07-2019DISCHARGE (KAF)10094106
35CLFW1NACHES-NEAR CLIFFDEL10-07-2019DISCHARGE (KAF)569856
36CLUW1CLE ELUM-CLE ELUM LAKE10-07-2019INFLOW (KAF)8510085
37PATW1METHOW-NEAR PATEROS10-07-2019DISCHARGE (KAF)124101123
38TEAI1TETON-NEAR ST. ANTHONY10-07-2019DISCHARGE (KAF)113109103
39CHEI1FALL RIVER-NEAR CHESTER10-07-2019DISCHARGE (KAF)122112110
40JLKW4SNAKE-JACKSON LAKE AT DAM10-07-2019INFLOW (KAF)133112118
41IPDI1HENRYS FORK-ISLAND PARK DAM10-07-2019INFLOW (KAF)121119102
42LAUW1KETTLE-AT LAURIER10-07-2019DISCHARGE (KAF)266128208
43BONM8BLACKFOOT-NEAR BONNER10-07-2019DISCHARGE (KAF)166138120
44CHDW1CHELAN-LAKE CHELAN DAM10-07-2019INFLOW (KAF)242157154
45SERO3JOHN DAY-AT SERVICE CK10-07-2019DISCHARGE (KAF)13116380
46WGCM8MF FLATHEAD-NEAR WEST GLACIER10-07-2019DISCHARGE (KAF)15817591
47FCFM8NF FLATHEAD-NEAR COLUMBIA FALLS10-07-2019DISCHARGE (KAF)16119981
48HODO3HOOD-NEAR TUCKER BRIDGE10-07-2019DISCHARGE (KAF)242206117
49PARI1BOISE-NEAR PARMA10-07-2019DISCHARGE (KAF)20421296
50UNDW1WHITE SALMON-NEAR UNDERWOOD10-07-2019DISCHARGE (KAF)21521998
51BITM8BITTERROOT-NEAR MISSOULA10-07-2019DISCHARGE (KAF)19523284
52PRTI1PRIEST-NEAR PRIEST RIVER10-07-2019DISCHARGE (KAF)22223395
53UMTW1YAKIMA-AT UMTANUM10-07-2019DISCHARGE (KAF)18824577
54HHWM8SF FLATHEAD-HUNGRY HORSE DAM10-07-2019INFLOW (KAF)23224694
55PITW1KLICKITAT-NEAR PITT10-07-2019DISCHARGE (KAF)20825582
56TRYO3GRANDE RONDE-TROY10-07-2019DISCHARGE (KAF)20227175
57TONW1OKANOGAN-NEAR TONASKET10-07-2019DISCHARGE (KAF)25328290
58PESW1WENATCHEE-AT PESHASTIN10-07-2019DISCHARGE (KAF)26129090
59JKSW4SNAKE-NEAR JACKSON10-07-2019DISCHARGE (KAF)333320104
60ANTI1HENRYS FORK-AT ST. ANTHONY10-07-2019DISCHARGE (KAF)387340114
61EMMI1PAYETTE-NEAR EMMETT10-07-2019DISCHARGE (KAF)26634776
62ABOM8CLARK FORK-ABOVE MISSOULA10-07-2019DISCHARGE (KAF)393352112
63ALPW4SNAKE-NEAR ALPINE10-07-2019DISCHARGE (KAF)417407103
64PARW1YAKIMA-NEAR PARKER10-07-2019DISCHARGE (KAF)31841577
65REXI1HENRYS FORK-AT REXBURG10-07-2019DISCHARGE (KAF)496431115
66DWRI1NF CLEARWATER-DWORSHAK DAM10-07-2019INFLOW (KAF)28447460
67MILI1SNAKE-AT MILNER10-07-2019DISCHARGE (KAF)M505M
68COEI1COEUR D ALENE-COEUR D ALENE LAKE10-07-2019INFLOW (KAF)33658358
69BELM8CLARK FORK-BELOW MISSOULA10-07-2019DISCHARGE (KAF)592589100
70ORFI1CLEARWATER-AT OROFINO10-07-2019DISCHARGE (KAF)53662486
71HEII1SNAKE-NEAR HEISE10-07-2019DISCHARGE (KAF)639637100
72KIOW1YAKIMA-AT KIONA10-07-2019DISCHARGE (KAF)47565572
73PLDI1SF SNAKE-PALISADES DAM10-07-2019INFLOW (KAF)678657103
74SNAI1SNAKE-AT BLACKFOOT10-07-2019DISCHARGE (KAF)801714112
75SRGM8CLARK FORK-AT ST REGIS10-07-2019DISCHARGE (KAF)73676596
76BFTI1SNAKE-NEAR BLACKFOOT10-07-2019DISCHARGE (KAF)823771107
77SHYI1SNAKE-NEAR SHELLEY10-07-2019DISCHARGE (KAF)922802115
78SIFI1SNAKE-AB EAGLE ROCK NR IDAHO FALLS10-07-2019DISCHARGE (KAF)931825113
79LYDM8KOOTENAI-LIBBY DAM10-07-2019INFLOW (KAF)951956100
80LLKW1SPOKANE-AT LONGLAKE10-07-2019INFLOW (KAF)657103464
81WHBI1SALMON-AT WHITEBIRD10-07-2019DISCHARGE (KAF)1001109591
82CFMM8FLATHEAD-AT COLUMBIA FALLS10-07-2019DISCHARGE (KAF)892120774
83MODO3DESCHUTES-AT MOODY NR BIGGS10-07-2019DISCHARGE (KAF)13421343100
84AFRI1SNAKE-AMERICAN FALLS RESERVOIR10-07-2019INFLOW (KAF)14971459103
85SPDI1CLEARWATER-AT SPALDING10-07-2019DISCHARGE (KAF)993148567
86KERM8FLATHEAD-KERR DAM10-07-2019INFLOW (KAF)1029150968
87LEOI1KOOTENAI-AT LEONIA10-07-2019DISCHARGE (KAF)20561639125
88SWAI1SNAKE-BELOW SWAN FALLS10-07-2019DISCHARGE (KAF)1883253174
89NOXM8CLARK FORK-NOXON RAPIDS DAM10-07-2019INFLOW (KAF)2523345873
90WEII1SNAKE-AT WEISER10-07-2019DISCHARGE (KAF)2744358377
91CABI1CLARK FORK-CABINET GORGE DAM10-07-2019INFLOW (KAF)2765359977
92BRNI1SNAKE-BROWNLEE DAM10-07-2019INFLOW (KAF)2924367979
93ALFW1PEND OREILLE-ALBENI FALLS DAM10-07-2019INFLOW (KAF)3009417372
94ANAW1SNAKE-NEAR ANATONE10-07-2019DISCHARGE (KAF)3981553972
95LGDW1SNAKE-LOWER GRANITE DAM10-07-2019INFLOW (KAF)4975723169
96IHDW1SNAKE-ICE HARBOR DAM10-07-2019INFLOW (KAF)5010725969
97LGSW1SNAKE-LITTLE GOOSE DAM10-07-2019INFLOW (KAF)4975728368
98LMNW1SNAKE-LOWER MONUMENTAL DAM10-07-2019INFLOW (KAF)5010733168
99GCDW1COLUMBIA-GRAND COULEE DAM10-07-2019INFLOW (KAF)1981417361114
100WANW1COLUMBIA-WANAPUM DAM10-07-2019INFLOW (KAF)2200419450113
101PRWW1COLUMBIA-PRIEST RAPIDS DAM10-07-2019INFLOW (KAF)2199819774111
102CHJW1COLUMBIA-CHIEF JOSEPH DAM10-07-2019INFLOW (KAF)2080120817100
103WELW1COLUMBIA-WELLS DAM10-07-2019INFLOW (KAF)2117521186100
104RRHW1COLUMBIA-ROCKY REACH DAM10-07-2019INFLOW (KAF)2175021702100
105MCDW1COLUMBIA-MCNARY DAM10-07-2019INFLOW (KAF)275162888695
106JDAO3COLUMBIA-JOHN DAY DAM10-07-2019INFLOW (KAF)285722971296
107TDAO3COLUMBIA-THE DALLES DAM10-07-2019INFLOW (KAF)293133293089
108BONO3COLUMBIA-BONNEVILLE DAM10-07-2019INFLOW (KAF)299623485986
109BFEI1KOOTENAI-AT BONNERS FERRY10-07-2019STAGE (FT)MMM
110DRMM8CLARK FORK-NR DRUMMOND10-07-2019DISCHARGE (KAF)149MM
111HOPI1PEND OREILLE-PEND OREILLE LAKE NR HOPE10-07-2019LAKE ELEVATION (FT)MMM
112SPOW1SPOKANE-AT SPOKANE10-07-2019DISCHARGE (KAF)467MM
113SJMI1ST JOE-AT ST MARIES10-07-2019STAGE (FT)MMM
114CIBW1COLUMBIA-AT INTL BOUNDARY10-07-2019DISCHARGE (KAF)18798MM
115LUCI1BOISE-LUCKY PEAK DAM10-07-2019INFLOW (KAF)29MM